DW1449 Weather Reports


time (UTC)temp
F
wind
direction
speed
knots
gust
knots
rain 1hr
in
rain 24hr
in
rain mn
in
humidity
%
barometer
mb
20260507083535 52 0.0 0.0 0.00 0.00 0.00 70 1016.8
20260507083048 52 0.0 0.0 0.00 0.00 0.00 73 1016.8
20260507082536 52 0.0 0.0 0.00 0.00 0.00 73 1016.7
20260507082035 51 0.0 0.0 0.00 0.00 0.00 73 1016.7
20260507081550 51 0.0 0.0 0.00 0.00 0.00 74 1016.7
20260507081035 51 0.0 0.0 0.00 0.00 0.00 72 1016.6
20260507080535 51 0.0 0.0 0.00 0.00 0.00 74 1016.5
20260507080053 51 0.0 0.0 0.00 0.00 0.00 75 1016.7
20260507075535 51 0.0 0.0 0.00 0.00 0.00 75 1016.7
20260507075035 51 0.0 0.0 0.00 0.00 0.00 77 1016.5
20260507074550 50 0.0 0.0 0.00 0.00 0.00 77 1016.6
20260507074033 50 0.0 0.0 0.00 0.00 0.00 76 1016.6
20260507073535 50 0.0 0.0 0.00 0.00 0.00 77 1016.5
20260507073057 50 0.0 0.0 0.00 0.00 0.00 77 1016.6
20260507072535 49 0.0 0.0 0.00 0.00 0.00 77 1016.5
20260507072035 49 0.0 0.0 0.00 0.00 0.00 77 1016.5
20260507071542 49 0.0 0.0 0.00 0.00 0.00 76 1016.6
20260507071035 49 0.0 0.0 0.00 0.00 0.00 74 1016.5
20260507070535 48 0.0 0.0 0.00 0.00 0.00 74 1016.5
20260507070051 48 0.0 0.0 0.00 0.00 0.00 74 1016.4
20260507065536 48 0.0 0.0 0.00 0.00 0.00 74 1016.4
20260507065035 47 0.0 0.0 0.00 0.00 0.00 75 1016.4
20260507064548 47 0.0 0.0 0.00 0.00 0.00 75 1016.3
20260507064036 47 0.0 0.0 0.00 0.00 0.00 75 1016.3
20260507063536 47 0.0 0.0 0.00 0.00 0.00 80 1016.4
20260507063056 47 0.0 0.0 0.00 0.00 0.00 83 1016.4
20260507062535 46 0.0 0.0 0.00 0.00 0.00 83 1016.5
20260507062035 46 0.0 0.0 0.00 0.00 0.00 85 1016.3
20260507061546 45 0.0 0.0 0.00 0.00 0.00 86 1016.3
20260507061036 45 0.0 0.0 0.00 0.00 0.00 88 1016.4
20260507060535 45 0.0 0.0 0.00 0.00 0.00 90 1016.3
20260507060046 44 0.0 0.0 0.00 0.00 0.00 91 1016.1
20260507055532 44 0.0 0.0 0.00 0.00 0.00 92 1016.3
20260507055034 43 0.0 0.0 0.00 0.00 0.00 92 1016.2
20260507054544 43 0.0 0.0 0.00 0.00 0.00 92 1016.2
20260507054035 43 0.0 0.0 0.00 0.00 0.00 93 1016.1
20260507053532 42 0.0 0.0 0.00 0.00 0.00 93 1016.2
20260507053050 42 0.0 0.0 0.00 0.00 0.00 93 1016.1
20260507052534 42 0.0 0.0 0.00 0.00 0.00 93 1016.0
20260507052035 41 0.0 0.0 0.00 0.00 0.00 93 1016.0
20260507051542 41 0.0 0.0 0.00 0.00 0.00 93 1016.1
20260507051039 41 0.0 0.0 0.00 0.00 0.00 93 1016.0
20260507050536 41 0.0 0.0 0.00 0.00 0.00 93 1015.9
20260507050053 40 0.0 0.0 0.00 0.00 0.00 93 1015.9
20260507045535 40 0.0 0.0 0.00 0.00 0.00 93 1015.7
20260507045035 39 0.0 0.0 0.00 0.00 0.00 93 1015.9
20260507044546 39 0.0 0.0 0.00 0.00 0.00 93 1015.8
20260507044038 38 0.0 0.0 0.00 0.00 0.00 93 1015.8
20260507043535 38 0.0 0.0 0.00 0.00 0.00 92 1015.9
20260507043047 37 0.0 0.0 0.00 0.00 0.00 92 1015.7
20260507042535 37 0.0 0.0 0.00 0.00 0.00 93 1015.8
20260507042036 37 0.0 0.0 0.00 0.00 0.00 92 1015.7
20260507041547 37 0.0 0.0 0.00 0.00 0.00 92 1015.7
20260507041032 36 0.0 0.0 0.00 0.00 0.00 92 1015.8
20260507040534 36 0.0 0.0 0.00 0.00 0.00 92 1015.6
20260507040103 36 0.0 0.0 0.00 0.00 0.00 92 1015.5
20260507035534 36 0.0 0.0 0.00 0.00 0.00 92 1015.5
20260507035034 36 0.0 0.0 0.00 0.00 0.00 92 1015.6
20260507034602 36 0.0 0.0 0.00 0.00 0.00 92 1015.5
20260507034034 36 0.0 0.0 0.00 0.00 0.00 92 1015.5
20260507033533 36 0.0 0.0 0.00 0.00 0.00 91 1015.5
20260507033102 36 0.0 0.0 0.00 0.00 0.00 92 1015.5
20260507032537 36 0.0 0.0 0.00 0.00 0.00 91 1015.4
20260507032035 36 0.0 0.0 0.00 0.00 0.00 92 1015.4
20260507031545 36 0.0 0.0 0.00 0.00 0.00 91 1015.3
20260507031035 35 0.0 0.0 0.00 0.00 0.00 91 1015.4
20260507030538 35 0.0 0.0 0.00 0.00 0.00 91 1015.3
20260507030043 35 0.0 0.0 0.00 0.00 0.00 91 1015.3
20260507025535 35 0.0 0.0 0.00 0.00 0.00 91 1015.3
20260507025035 35 0.0 0.0 0.00 0.00 0.00 91 1015.3
20260507024552 35 0.0 0.0 0.00 0.00 0.00 91 1015.2
20260507024034 35 0.0 0.0 0.00 0.00 0.00 91 1015.1
20260507023538 35 0.0 0.0 0.00 0.00 0.00 91 1015.1
20260507023040 35 0.0 0.0 0.00 0.00 0.00 90 1015.1
20260507022532 35 0.0 0.0 0.00 0.00 0.00 90 1015.1
20260507022035 35 0.0 0.0 0.00 0.00 0.00 90 1015.0
20260507021550 35 0.0 0.0 0.00 0.00 0.00 90 1015.0
20260507021039 35 0.0 0.0 0.00 0.00 0.00 90 1015.0
20260507020534 35 0.0 0.0 0.00 0.00 0.00 90 1015.1
20260507020042 35 0.0 0.0 0.00 0.00 0.00 90 1015.1
20260507015534 35 0.0 0.0 0.00 0.00 0.00 89 1015.1
20260507015034 35 0.0 0.0 0.00 0.00 0.00 89 1015.0
20260507014545 36 0.0 0.0 0.00 0.00 0.00 89 1015.1
20260507014033 36 0.0 0.0 0.00 0.00 0.00 89 1014.8
20260507013532 36 0.0 0.0 0.00 0.00 0.00 89 1014.9
20260507013103 36 0.0 0.0 0.00 0.00 0.00 88 1015.0
20260507012535 36 0.0 0.0 0.00 0.00 0.00 88 1014.9
20260507012035 36 0.0 0.0 0.00 0.00 0.00 88 1014.9
20260507011552 36 0.0 0.0 0.00 0.00 0.00 88 1014.8
20260507011033 36 0.0 0.0 0.00 0.00 0.00 87 1014.9
20260507010535 36 0.0 0.0 0.00 0.00 0.00 87 1014.9
20260507010053 36 0.0 0.0 0.00 0.00 0.00 87 1014.8
20260507005534 36 0.0 0.0 0.00 0.00 0.00 87 1014.8
20260507005034 36 0.0 0.0 0.00 0.00 0.00 87 1014.8
20260507004540 36 0.0 0.0 0.00 0.00 0.00 87 1015.0
20260507004035 36 0.0 0.0 0.00 0.00 0.00 86 1015.0
20260507003535 36 0.0 0.0 0.00 0.00 0.00 86 1014.9
20260507003042 36 0.0 0.0 0.00 0.00 0.00 86 1014.9
20260507002535 36 0.0 0.0 0.00 0.00 0.00 86 1014.9
20260507002035 36 0.0 0.0 0.00 0.00 0.00 86 1014.7
20260507001604 36 0.0 0.0 0.00 0.00 0.00 86 1014.7
20260507001038 36 0.0 0.0 0.00 0.00 0.00 86 1014.9
20260507000535 36 0.0 0.0 0.00 0.00 0.00 85 1014.8
20260507000042 36 0.0 0.0 0.00 0.00 0.00 85 1014.7
20260506235535 36 0.0 0.0 0.00 0.00 0.00 85 1014.9
20260506235038 36 0.0 0.0 0.00 0.00 0.00 84 1014.8
20260506234552 36 0.0 0.0 0.00 0.00 0.00 83 1014.8
20260506234035 36 0.0 0.0 0.00 0.00 0.00 83 1014.9
20260506233533 36 0.0 0.0 0.00 0.00 0.00 82 1014.9
20260506233047 37 0.0 0.0 0.00 0.00 0.00 81 1014.7
20260506232535 37 0.0 0.0 0.00 0.00 0.00 81 1014.9
20260506232034 36 0.0 0.0 0.00 0.00 0.00 81 1014.7
20260506231542 37 0.0 0.0 0.00 0.00 0.00 81 1014.8
20260506231034 37 0.0 0.0 0.00 0.00 0.00 81 1014.8
20260506230535 37 0.0 0.0 0.00 0.00 0.00 80 1014.9
20260506230045 37 0.0 0.0 0.00 0.00 0.00 79 1014.8
20260506225535 37 0.0 0.0 0.00 0.00 0.00 79 1014.8
20260506225040 37 0.0 0.0 0.00 0.00 0.00 78 1014.7
20260506224554 37 0.0 0.0 0.00 0.00 0.00 78 1014.9
20260506224035 38 0.0 0.0 0.00 0.00 0.00 77 1015.0
20260506223536 38 0.0 0.0 0.00 0.00 0.00 76 1014.8
20260506223054 38 0.0 0.0 0.00 0.00 0.00 74 1014.7
20260506222539 39 0.0 0.0 0.00 0.00 0.00 74 1014.6
20260506222036 38 0.0 0.0 0.00 0.00 0.00 74 1014.7
20260506221542 38 0.0 0.0 0.00 0.00 0.00 75 1014.6
20260506221035 39 0.0 0.0 0.00 0.00 0.00 75 1014.5
20260506220535 39 0.0 0.0 0.00 0.00 0.00 75 1014.5
20260506215535 39 0.0 0.0 0.00 0.00 0.00 75 1014.4
20260506215035 39 0.0 0.0 0.00 0.00 0.00 74 1014.4
20260506214545 39 0.0 0.0 0.00 0.00 0.00 74 1014.5
20260506214036 39 0.0 0.0 0.00 0.00 0.00 73 1014.3
20260506213536 40 0.0 0.0 0.00 0.00 0.00 72 1014.3
20260506213053 41 0.0 0.0 0.00 0.00 0.00 69 1014.2
20260506212536 41 0.0 0.0 0.00 0.00 0.00 68 1014.3
20260506212035 41 0.0 0.0 0.00 0.00 0.00 66 1014.2
20260506211556 41 0.0 0.0 0.00 0.00 0.00 68 1014.1
20260506211037 42 0.0 0.0 0.00 0.00 0.00 68 1014.0
20260506210535 42 0.0 0.0 0.00 0.00 0.00 67 1014.2
20260506210050 42 0.0 0.0 0.00 0.00 0.00 67 1014.0
20260506205538 42 0.0 0.0 0.00 0.00 0.00 66 1014.1
20260506205037 42 0.0 0.0 0.00 0.00 0.00 67 1014.1
20260506204546 42 0.0 0.0 0.00 0.00 0.00 67 1014.0
20260506204036 42 0.0 0.0 0.00 0.00 0.00 67 1014.1
20260506203535 42 0.0 0.0 0.00 0.00 0.00 67 1014.1
20260506203049 42 0.0 0.0 0.00 0.00 0.00 67 1014.2
20260506202537 42 0.0 0.0 0.00 0.00 0.00 68 1014.2
20260506202036 42 0.0 0.0 0.00 0.00 0.00 68 1014.1
20260506201549 42 0.0 0.0 0.00 0.00 0.00 68 1014.2
20260506201035 42 0.0 0.0 0.00 0.00 0.00 68 1014.1
20260506200534 42 0.0 0.0 0.00 0.00 0.00 67 1014.0
20260506200051 42 0.0 0.0 0.00 0.00 0.00 66 1014.1
20260506195536 43 0.0 0.0 0.00 0.00 0.00 66 1014.0
20260506195035 43 0.0 0.0 0.00 0.00 0.00 65 1014.0
20260506194553 43 0.0 0.0 0.00 0.00 0.00 66 1014.0
20260506194037 43 0.0 0.0 0.00 0.00 0.00 66 1013.9
20260506193534 44 0.0 0.0 0.00 0.00 0.00 65 1014.2
20260506193052 45 0.0 0.0 0.00 0.00 0.00 64 1013.9
20260506192534 45 0.0 0.0 0.00 0.00 0.00 62 1013.8
20260506192037 46 0.0 0.0 0.00 0.00 0.00 60 1013.8
20260506191541 46 0.0 0.0 0.00 0.00 0.00 58 1013.8
20260506191037 47 0.0 0.0 0.00 0.00 0.00 57 1013.8
20260506190534 47 0.0 0.0 0.00 0.00 0.00 57 1013.7
20260506190045 48 0.0 0.0 0.00 0.00 0.00 56 1013.7
20260506185535 48 0.0 0.0 0.00 0.00 0.00 56 1013.6
20260506185035 48 0.0 0.0 0.00 0.00 0.00 55 1013.4
20260506184543 49 0.0 0.0 0.00 0.00 0.00 55 1013.4
20260506184035 49 0.0 0.0 0.00 0.00 0.00 54 1013.4
20260506183538 50 0.0 0.0 0.00 0.00 0.00 54 1013.2
20260506183058 50 0.0 0.0 0.00 0.00 0.00 54 1013.2
20260506182534 50 0.0 0.0 0.00 0.00 0.00 53 1013.0
20260506182034 50 0.0 0.0 0.00 0.00 0.00 52 1013.0
20260506181558 50 0.0 0.0 0.00 0.00 0.00 52 1012.9
20260506181035 50 0.0 0.0 0.00 0.00 0.00 51 1012.9
20260506180537 50 0.0 0.0 0.00 0.00 0.00 49 1012.8
20260506180043 51 0.0 0.0 0.00 0.00 0.00 47 1012.9
20260506175536 51 0.0 0.0 0.00 0.00 0.00 48 1012.8
20260506175036 51 0.0 0.0 0.00 0.00 0.00 47 1012.9
20260506174548 51 0.0 0.0 0.00 0.00 0.00 47 1012.9
20260506174037 51 0.0 0.0 0.00 0.00 0.00 47 1012.9
20260506173536 52 0.0 0.0 0.00 0.00 0.00 48 1012.7
20260506173116 52 0.0 0.0 0.00 0.00 0.00 49 1012.8
20260506172536 52 0.0 0.0 0.00 0.00 0.00 48 1012.8
20260506172036 51 0.0 0.0 0.00 0.00 0.00 47 1012.8
20260506171551 51 0.0 0.0 0.00 0.00 0.00 46 1012.7
20260506171036 52 0.0 0.0 0.00 0.00 0.00 47 1012.5
20260506170536 52 0.0 0.0 0.00 0.00 0.00 47 1012.7
20260506170044 52 0.0 0.0 0.00 0.00 0.00 47 1012.7
20260506165534 52 0.0 0.0 0.00 0.00 0.00 47 1012.6
20260506165037 52 0.0 0.0 0.00 0.00 0.00 47 1012.6
20260506164547 52 0.0 0.0 0.00 0.00 0.00 47 1012.5
20260506164036 52 0.0 0.0 0.00 0.00 0.00 45 1012.5
20260506163539 52 0.0 0.0 0.00 0.00 0.00 46 1012.7
20260506163048 52 0.0 0.0 0.00 0.00 0.00 45 1012.6
20260506162537 52 0.0 0.0 0.00 0.00 0.00 47 1012.5
20260506162036 53 0.0 0.0 0.00 0.00 0.00 45 1012.6
20260506161546 53 0.0 0.0 0.00 0.00 0.00 45 1012.4
20260506161037 53 0.0 0.0 0.00 0.00 0.00 47 1012.5
20260506160536 53 0.0 0.0 0.00 0.00 0.00 46 1012.6
20260506160059 53 0.0 0.0 0.00 0.00 0.00 47 1012.5
20260506155534 53 0.0 0.0 0.00 0.00 0.00 46 1012.5
20260506155037 53 0.0 0.0 0.00 0.00 0.00 46 1012.6
20260506154551 54 0.0 0.0 0.00 0.00 0.00 47 1012.7
20260506154036 54 0.0 0.0 0.00 0.00 0.00 45 1012.5
20260506153535 54 0.0 0.0 0.00 0.00 0.00 45 1012.5
20260506153046 54 0.0 0.0 0.00 0.00 0.00 44 1012.4
20260506152536 54 0.0 0.0 0.00 0.00 0.00 43 1012.4
20260506152036 54 0.0 0.0 0.00 0.00 0.00 44 1012.4
20260506151550 54 0.0 0.0 0.00 0.00 0.00 45 1012.3
20260506151037 54 0.0 0.0 0.00 0.00 0.00 45 1012.4
20260506150537 54 0.0 0.0 0.00 0.00 0.00 43 1012.3
20260506150050 55 0.0 0.0 0.00 0.00 0.00 45 1012.3
20260506145537 55 0.0 0.0 0.00 0.00 0.00 43 1012.2
20260506145035 55 0.0 0.0 0.00 0.00 0.00 43 1012.2
20260506144550 54 0.0 0.0 0.00 0.00 0.00 43 1012.4
20260506144034 54 0.0 0.0 0.00 0.00 0.00 43 1012.2
20260506143536 55 0.0 0.0 0.00 0.00 0.00 42 1012.4
20260506143048 55 0.0 0.0 0.00 0.00 0.00 45 1012.3
20260506142534 55 0.0 0.0 0.00 0.00 0.00 42 1012.3
20260506142038 55 0.0 0.0 0.00 0.00 0.00 41 1012.2
20260506141549 55 0.0 0.0 0.00 0.00 0.00 41 1012.2
20260506141035 55 0.0 0.0 0.00 0.00 0.00 40 1012.2
20260506140535 55 0.0 0.0 0.00 0.00 0.00 43 1012.2
20260506140048 55 0.0 0.0 0.00 0.00 0.00 42 1012.2
20260506135534 55 0.0 0.0 0.00 0.00 0.00 44 1012.1
20260506135034 55 0.0 0.0 0.00 0.00 0.00 42 1012.2
20260506134548 55 0.0 0.0 0.00 0.00 0.00 41 1012.0
20260506134034 56 0.0 0.0 0.00 0.00 0.00 41 1012.1
20260506133534 56 0.0 0.0 0.00 0.00 0.00 44 1012.0
20260506133046 55 0.0 0.0 0.00 0.00 0.00 44 1011.9
20260506132534 55 0.0 0.0 0.00 0.00 0.00 43 1012.0
20260506132040 55 0.0 0.0 0.00 0.00 0.00 44 1012.0
20260506131557 55 0.0 0.0 0.00 0.00 0.00 44 1012.1
20260506131035 55 0.0 0.0 0.00 0.00 0.00 45 1012.0
20260506130535 56 0.0 0.0 0.00 0.00 0.00 48 1011.9
20260506130048 56 0.0 0.0 0.00 0.00 0.00 47 1011.8
20260506125534 55 0.0 0.0 0.00 0.00 0.00 50 1011.9
20260506125035 54 0.0 0.0 0.00 0.00 0.00 51 1011.9
20260506124540 54 0.0 0.0 0.00 0.00 0.00 51 1012.0
20260506124034 54 0.0 0.0 0.00 0.00 0.00 50 1011.9
20260506123536 55 0.0 0.0 0.00 0.00 0.00 50 1012.1
20260506123042 55 0.0 0.0 0.00 0.00 0.00 53 1011.9
20260506122535 55 0.0 0.0 0.00 0.00 0.00 51 1011.9
20260506122034 55 0.0 0.0 0.00 0.00 0.00 53 1011.8
20260506121544 55 0.0 0.0 0.00 0.00 0.00 55 1011.7
20260506121034 55 0.0 0.0 0.00 0.00 0.00 54 1011.9
20260506120538 55 0.0 0.0 0.00 0.00 0.00 54 1011.7
20260506120046 54 0.0 0.0 0.00 0.00 0.00 56 1011.7
20260506115535 55 0.0 0.0 0.00 0.00 0.00 55 1011.7
20260506115033 55 0.0 0.0 0.00 0.00 0.00 55 1011.8
20260506114549 55 0.0 0.0 0.00 0.00 0.00 60 1011.7
20260506114035 54 0.0 0.0 0.00 0.00 0.00 58 1011.8
20260506113535 55 0.0 0.0 0.00 0.00 0.00 59 1011.7
20260506113043 54 0.0 0.0 0.00 0.00 0.00 63 1011.7
20260506112535 54 0.0 0.0 0.00 0.00 0.00 63 1011.9
20260506112035 54 0.0 0.0 0.00 0.00 0.00 61 1011.8
20260506111542 54 0.0 0.0 0.00 0.00 0.00 64 1011.8
20260506111036 54 0.0 0.0 0.00 0.00 0.00 63 1011.7
20260506110535 54 0.0 0.0 0.00 0.00 0.00 63 1011.7
20260506110047 54 0.0 0.0 0.00 0.00 0.00 64 1011.8
20260506105535 53 0.0 0.0 0.00 0.00 0.00 66 1011.8
20260506105035 54 0.0 0.0 0.00 0.00 0.00 70 1011.8
20260506104549 53 0.0 0.0 0.00 0.00 0.00 70 1011.8
20260506104035 53 0.0 0.0 0.00 0.00 0.00 72 1011.9
20260506103535 53 0.0 0.0 0.00 0.00 0.00 72 1011.9
20260506103053 53 0.0 0.0 0.00 0.00 0.00 73 1011.9
20260506102535 53 0.0 0.0 0.00 0.00 0.00 75 1011.7
20260506102035 53 0.0 0.0 0.00 0.00 0.00 75 1011.9
20260506101541 52 0.0 0.0 0.00 0.00 0.00 76 1011.9
20260506101035 52 0.0 0.0 0.00 0.00 0.00 76 1011.9
20260506100538 51 0.0 0.0 0.00 0.00 0.00 75 1011.8
20260506100046 51 0.0 0.0 0.00 0.00 0.00 75 1012.1
20260506095535 51 0.0 0.0 0.00 0.00 0.00 76 1012.0
20260506095038 51 0.0 0.0 0.00 0.00 0.00 77 1012.0
20260506094607 51 0.0 0.0 0.00 0.00 0.00 77 1011.9
20260506094034 51 0.0 0.0 0.00 0.00 0.00 76 1012.0
20260506093534 51 0.0 0.0 0.00 0.00 0.00 77 1012.0
20260506093045 50 0.0 0.0 0.00 0.00 0.00 77 1012.1
20260506092534 50 0.0 0.0 0.00 0.00 0.00 76 1011.9
20260506092034 50 0.0 0.0 0.00 0.00 0.00 76 1012.0
20260506091545 50 0.0 0.0 0.00 0.00 0.00 75 1011.9
20260506091035 50 0.0 0.0 0.00 0.00 0.00 73 1011.9
20260506090534 51 0.0 0.0 0.00 0.00 0.00 72 1012.0
20260506090041 51 0.0 0.0 0.00 0.00 0.00 71 1011.8
20260506085535 51 0.0 0.0 0.00 0.00 0.00 69 1011.8
20260506085035 51 0.0 0.0 0.00 0.00 0.00 66 1011.7
20260506084544 51 0.0 0.0 0.00 0.00 0.00 66 1011.7
20260506084034 51 0.0 0.0 0.00 0.00 0.00 63 1011.6